RH
52 49 46 42 39 39 39 40 42 44 46 42 38 37 41 42 38 37 38 38 33 31 22 36 57 47 56 61 66 73 80 80 82 78 56 81 86 80 76 76 80 80 79
50 47 45 44 42 40 40 41 44 47 50 50 44 38 38 40 39 38 38 40 37 34 24 23 40 53 48 53 60 67 74 82 86 88 88 85 82 83 81 83 81 82 80
48 49 49 46 44 42 43 43 44 43 42 44 45 43 38 36 40 39 37 38 39 36 32 21 26 48 51 36 42 59 70 74 80 83 90 88 87 78 82 84 88 86 82
45 45 46 45 44 45 45 47 46 46 46 43 43 43 42 38 36 40 40 39 39 39 35 31 22 26 26 28 28 30 42 60 72 81 87 86 85 86 87 90 87 86 86
40 44 46 46 45 46 49 49 49 49 50 49 48 45 40 42 38 35 37 38 38 37 43 37 31 24 24 27 26 26 28 32 43 70 81 85 87 86 91 92 90 88 88
45 42 43 43 42 45 45 45 47 45 45 47 50 50 48 46 45 42 37 35 37 37 35 43 40 32 24 25 27 28 37 34 34 42 58 85 84 81 86 88 87 75 92
42 42 41 42 39 40 41 40 41 42 43 45 48 51 47 46 47 51 46 40 36 37 37 35 43 41 31 24 25 27 41 50 54 59 64 68 85 87 81 86 88 84 92
42 41 37 36 41 44 44 45 47 47 43 42 51 52 58 48 44 43 42 46 42 39 37 40 40 46 41 43 38 32 31 46 41 47 33 43 65 84 80 75 80 91 89
49 37 34 36 41 45 46 45 46 45 59 53 49 55 63 64 54 47 46 45 47 49 53 56 55 44 44 47 38 33 34 33 26 21 23 27 41 55 77 69 64 67 81
38 36 36 38 41 48 46 50 54 54 57 60 63 68 70 75 86 78 57 57 55 58 58 58 52 69 49 44 40 40 36 36 32 31 26 34 53 42 78 78 63 57 63
40 38 39 40 46 47 49 52 52 56 67 73 72 70 70 71 74 83 79 78 71 59 75 88 83 80 66 53 47 44 43 42 43 38 35 63 61 49 46 79 79 75 59
42 43 44 46 51 52 51 58 67 68 72 73 71 78 78 79 77 78 80 80 82 79 71 77 96 89 87 84 62 54 47 40 40 34 44 65 64 68 45 66 73 80 85
49 48 47 47 51 54 58 58 62 78 82 83 84 79 80 83 81 86 86 86 84 83 82 75 71 88 94 92 82 78 68 48 46 43 40 60 67 58 50 58 83 84 80
49 47 58 58 60 61 61 63 68 76 81 82 80 76 79 79 80 87 92 96 94 91 81 82 76 73 86 94 87 81 65 44 40 40 49 48 51 55 56 59 65 79 84
61 60 64 71 71 75 81 84 86 82 83 89 79 81 83 81 77 80 82 85 88 94 79 57 78 64 70 86 85 86 66 60 47 43 42 46 47 50 50 47 56 66 74
60 66 74 80 83 82 85 88 92 88 80 78 84 86 97 85 86 69 65 64 68 79 86 69 56 45 44 51 71 71 67 50 52 48 48 51 48 46 45 47 38 40 40
64 63 64 71 75 78 84 69 65 73 78 66 65 67 73 79 82 80 71 60 50 47 64 47 42 38 35 37 41 44 59 49 44 44 41 40 39 39 39 38 37 40 39
60 59 56 56 56 56 55 57 64 65 63 68 62 58 58 55 55 50 49 50 47 45 45 49 44 40 37 35 34 34 36 41 39 42 43 42 39 39 39 40 35 31 31
47 44 39 37 36 36 37 37 39 46 52 50 49 53 51 48 49 47 48 49 50 52 54 51 48 41 39 36 34 34 34 36 37 38 37 38 40 43 45 42 42 42 43
37 35 34 36 37 38 39 47 51 54 56 54 54 53 55 52 50 53 62 58 58 56 56 56 54 48 43 40 37 35 36 33 33 34 35 36 39 41 42 44 43 44 45
33 33 35 37 38 40 49 50 54 59 61 62 60 57 55 53 52 50 52 60 57 56 58 61 61 57 52 47 48 51 52 50 47 47 47 47 48 51 53 44 46 42 40
33 35 38 40 42 47 53 61 68 72 74 72 69 64 61 58 54 54 54 58 56 52 59 60 60 62 61 60 63 62 64 65 76 57 55 56 55 53 53 56 65 70 70
35 38 40 43 47 53 62 77 83 79 75 69 68 68 67 64 65 64 68 74 72 80 80 77 77 79 73 67 67 69 68 69 70 69 65 64 58 60 59 64 66 71 69
37 39 45 48 54 62 64 65 82 81 74 72 74 71 71 72 75 75 83 86 83 74 73 80 80 87 86 80 74 76 80 82 80 76 69 79 71 70 64 68 64 58 57
38 48 55 65 71 72 73 86 93 86 83 78 79 84 84 78 73 75 79 83 88 83 75 69 73 83 88 84 82 91 88 87 92 86 77 66 66 65 64 65 58 58 52
46 55 69 76 75 69 82 89 96 93 90 88 92 85 80 84 98 100 100 98 98 96 93 90 84 80 74 72 73 86 98 91 79 79 69 69 68 72 83 69 63 57 56
Wind_Speed
3 5 6 8 10 10 10 10 13 14 12 14 15 12 13 15 16 17 14 16 16 16 15 14 14 15 16 16 16 16 16 13 14 17 25 26 23 23 24 26 26 26 25
5 6 8 10 11 12 12 15 17 17 16 15 14 17 17 16 18 17 17 17 19 18 17 17 15 15 15 16 17 18 17 15 12 13 18 25 26 25 23 26 27 27 27
6 8 9 10 12 14 14 18 18 18 19 20 20 18 20 22 22 20 21 21 21 22 20 20 18 16 16 16 17 17 17 17 17 16 13 17 28 24 23 25 28 29 29
6 8 11 15 16 18 19 20 21 22 22 22 23 23 23 24 24 24 24 24 24 24 24 22 22 20 19 17 16 15 14 15 16 16 16 16 18 22 25 26 29 30 30
7 8 14 17 21 22 22 23 25 24 22 21 23 24 27 25 27 26 26 28 28 26 25 27 25 25 23 20 19 18 17 16 14 12 13 15 18 19 23 24 25 28 31
9 13 17 19 21 21 22 22 24 26 28 28 27 26 28 32 32 30 30 31 30 31 33 27 29 29 26 24 23 21 19 18 17 15 14 12 14 18 20 24 26 23 34
13 18 22 20 21 22 22 23 25 28 28 26 28 25 27 28 29 30 33 34 35 35 37 40 31 32 31 28 25 24 21 17 16 15 14 14 15 15 18 19 21 28 25
22 27 22 20 17 19 21 23 24 26 26 26 24 22 11 22 24 25 30 33 37 37 40 40 38 32 30 32 30 26 23 20 17 16 16 16 17 15 16 17 18 21 25
28 20 17 19 18 17 20 24 24 23 20 24 22 17 9 11 17 23 27 31 31 30 25 26 33 39 36 27 30 27 25 21 19 16 15 15 17 17 15 16 16 17 18
17 17 19 20 21 17 20 22 19 21 20 20 18 15 20 19 4 9 14 22 26 26 28 29 27 26 35 32 16 21 24 23 20 16 14 14 15 17 15 14 15 15 16
18 20 19 20 19 22 22 24 19 18 12 11 12 15 16 22 20 6 9 12 27 27 24 21 15 17 12 8 14 19 19 22 19 17 15 15 16 17 18 16 14 15 15
19 18 20 21 19 19 21 19 13 14 13 10 10 9 10 5 12 10 8 13 12 17 26 20 19 16 8 13 12 15 18 22 22 19 15 15 16 17 18 16 16 16 15
16 20 21 21 20 18 13 13 12 9 10 10 12 13 14 12 14 13 13 13 9 16 12 21 17 18 12 16 15 15 18 21 20 18 17 13 15 15 17 17 16 17 17
18 20 19 20 15 14 14 13 11 10 10 11 14 15 17 17 16 14 11 8 7 5 15 19 18 14 21 17 19 8 18 14 14 15 16 14 13 10 11 15 17 18 19
15 20 22 20 19 16 14 14 15 17 17 22 23 19 19 19 19 19 17 17 12 5 6 16 8 18 13 17 18 15 17 16 16 15 16 14 13 11 9 9 10 13 15
21 20 19 20 20 18 16 20 20 18 18 19 19 18 21 20 20 21 20 21 21 17 9 15 22 18 18 16 19 16 20 16 11 14 15 13 13 15 15 13 11 8 9
18 20 20 20 20 20 19 17 19 17 17 20 21 19 18 19 20 19 20 22 23 20 10 18 20 20 20 18 15 18 20 18 14 16 18 20 22 24 24 23 21 18 15
16 18 20 20 21 20 20 20 21 20 21 19 21 23 23 20 21 20 19 20 20 20 22 17 19 21 23 22 21 20 16 14 18 20 22 23 25 23 22 21 22 25 25
18 19 20 21 21 21 21 21 20 16 19 21 23 27 27 25 23 22 21 20 19 17 19 20 18 21 23 24 24 23 20 19 17 15 17 18 15 20 24 22 24 25 26
19 20 19 19 21 22 22 14 14 18 20 21 23 29 31 28 26 25 20 18 15 19 21 22 22 21 21 21 23 25 25 24 23 19 18 18 17 20 24 27 28 28 29
17 17 20 21 22 21 11 16 16 17 19 22 24 26 28 30 30 26 20 20 19 17 17 18 19 20 19 18 17 16 17 15 13 11 11 13 15 14 19 25 28 28 30
17 19 19 20 19 16 16 17 21 23 21 22 26 27 29 30 29 24 17 19 21 23 21 19 18 17 20 21 20 18 18 14 4 12 11 12 13 17 18 13 14 21 21
19 19 20 18 14 15 13 20 20 22 19 23 26 27 28 25 27 24 19 17 14 14 20 22 20 21 22 25 24 22 18 17 15 14 16 18 17 19 18 17 14 10 11
19 20 16 14 15 15 22 26 21 19 21 22 25 27 28 27 23 22 20 18 18 19 18 18 21 26 25 25 23 21 19 18 20 20 18 14 19 23 21 19 20 22 22
20 13 14 15 17 22 23 21 17 17 19 22 25 25 26 26 27 25 24 21 20 20 20 22 25 27 27 28 29 25 21 17 13 15 16 21 21 23 25 26 28 25 27
15 14 13 15 19 24 19 17 15 15 19 22 23 24 24 24 10 11 12 14 16 17 15 17 21 21 21 22 23 21 25 20 18 14 23 20 17 17 10 22 24 28 29
Wind_Direction
13 0 350 344 333 324 320 323 320 314 314 313 299 281 287 283 282 285 277 274 275 281 267 259 257 248 246 247 248 248 249 252 243 236 228 240 237 235 230 227 227 228 226
341 348 341 334 323 319 318 314 299 289 289 282 281 280 272 268 269 275 270 279 270 260 260 252 251 255 252 248 247 246 245 243 238 232 226 227 236 231 231 233 228 227 228
313 322 314 304 303 306 302 303 298 297 293 288 280 275 272 266 259 263 258 263 273 260 258 254 246 239 241 243 245 247 244 242 239 236 235 230 230 233 230 235 232 229 227
311 308 311 308 308 306 305 299 296 295 295 293 291 287 278 266 262 251 247 246 252 261 252 252 243 241 240 239 237 240 242 243 240 238 237 236 241 240 234 228 230 231 229
328 340 319 309 306 305 302 299 295 292 289 299 298 293 292 288 269 261 252 244 243 247 248 245 238 241 235 236 240 237 235 236 236 236 238 241 238 239 235 231 230 231 232
355 335 315 308 307 302 299 302 306 307 304 299 295 291 291 286 280 275 265 258 248 241 241 242 238 231 232 235 239 242 237 233 235 235 232 221 237 238 240 240 237 244 243
344 336 318 318 321 319 316 316 314 306 300 301 302 295 294 290 293 284 270 261 251 250 241 233 231 229 232 236 236 239 235 229 228 231 235 230 215 236 241 245 245 233 244
343 327 306 313 316 327 330 324 326 324 316 313 313 308 304 296 288 288 289 279 261 253 246 233 227 225 228 233 225 231 233 228 228 234 238 237 233 225 239 246 245 241 243
312 307 321 327 329 324 324 317 314 314 325 317 315 317 312 300 309 299 293 296 297 297 261 251 247 230 227 222 222 226 231 231 234 233 236 236 239 236 236 239 244 248 243
322 342 338 333 331 327 324 312 317 320 319 317 329 343 346 357 337 313 316 313 314 319 322 254 256 273 230 214 213 217 229 243 242 233 233 232 234 236 237 243 246 247 253
351 342 331 327 327 325 318 310 307 311 324 348 351 350 347 348 346 326 316 341 326 315 340 321 324 271 266 277 219 253 241 235 239 252 241 228 227 231 235 236 243 251 253
339 326 329 327 323 320 316 318 337 330 335 327 316 348 347 323 318 308 306 309 305 311 306 331 321 292 239 279 283 264 245 231 240 251 250 241 235 234 234 233 238 242 249
335 333 327 324 319 315 324 340 352 348 347 341 326 309 304 294 283 287 294 293 295 309 308 307 300 315 299 254 262 280 254 228 227 241 250 250 241 235 236 233 231 235 243
332 325 343 340 342 341 333 331 331 335 324 319 302 290 289 282 278 271 258 273 299 287 291 284 304 302 288 295 282 272 232 225 234 239 238 243 251 245 243 239 238 237 234
349 340 337 336 342 341 344 338 324 313 314 309 298 290 282 277 274 269 263 256 258 291 296 311 303 315 304 300 286 282 247 236 221 238 242 239 249 254 255 254 240 235 238
344 337 341 339 331 328 324 325 317 314 314 307 299 298 296 292 293 290 284 272 265 257 277 282 292 287 291 267 274 275 260 262 239 229 234 244 260 264 266 265 262 249 240
331 325 321 315 315 311 311 318 310 306 300 302 304 300 295 300 296 298 298 299 293 277 266 289 287 299 309 311 282 264 280 284 251 241 254 260 262 266 266 267 264 265 268
320 320 315 316 313 317 318 313 305 301 295 295 310 304 299 293 291 302 304 295 295 299 292 289 299 300 299 303 306 306 300 263 249 255 257 256 252 248 258 262 264 268 270
320 324 326 322 324 317 313 312 316 335 346 338 329 325 321 301 295 288 287 294 304 312 323 313 301 299 302 304 304 302 300 293 290 275 270 266 248 246 245 253 260 266 272
324 322 324 324 323 323 321 328 335 328 328 323 319 314 313 310 303 292 304 296 296 304 312 312 309 307 302 301 296 290 288 286 284 281 277 281 278 254 246 246 255 263 268
321 326 323 321 322 321 324 335 338 331 325 319 313 308 304 303 305 303 285 276 287 289 291 292 295 302 298 296 296 319 319 311 308 308 294 288 295 309 268 255 244 253 265
326 320 317 317 319 334 328 339 335 331 328 319 311 305 300 300 300 304 314 292 276 265 262 267 273 281 289 296 308 315 320 321 323 302 311 306 289 285 283 282 262 259 266
317 315 313 316 326 334 330 339 328 329 323 319 311 308 307 306 309 310 310 304 305 290 273 271 272 271 274 279 288 296 297 299 294 297 298 300 287 285 281 274 268 281 285
315 313 327 333 331 326 317 320 317 323 317 316 312 310 308 310 311 312 310 303 296 290 280 271 265 268 264 267 271 277 288 292 289 286 278 274 276 275 277 277 275 277 280
317 337 332 332 332 325 323 316 319 316 314 314 311 306 304 305 306 300 297 294 289 286 283 279 275 271 270 270 269 271 269 273 280 276 271 265 266 271 272 273 276 276 278
344 336 336 335 331 324 323 329 331 325 317 319 319 315 309 307 319 327 316 298 288 284 287 296 296 291 287 286 283 271 255 247 254 268 261 262 270 276 272 262 263 269 271